CW3699 Weather Reports


Display with metric or nautical units.
time (UTC)temp
F
wind
direction
speed
MPH
gust
MPH
rain 1hr
in
rain 24hr
in
rain mn
in
humidity
%
barometer
mb
20260831222907 66 69 1.0 2.0 0.00 0.04 0.04 95 1012.0
20260831222407 66 66 1.0 3.0 0.00 0.04 0.04 94 1012.1
20260831221907 67 41 1.0 2.0 0.00 0.04 0.04 94 1012.1
20260831220906 67 73 1.0 2.0 0.00 0.04 0.04 94 1012.1
20260831220406 67 88 1.0 3.0 0.00 0.04 0.04 94 1012.1
20260831215907 68 86 1.0 3.0 0.00 0.04 0.04 94 1012.0
20260831215406 68 74 1.0 3.0 0.00 0.04 0.04 94 1012.0
20260831214906 68 59 1.0 3.0 0.00 0.04 0.04 94 1012.1
20260831214407 68 145 1.0 3.0 0.00 0.04 0.04 94 1012.0
20260831213407 68 78 1.0 2.0 0.00 0.04 0.04 95 1012.1
20260831212907 68 91 1.0 2.0 0.00 0.04 0.04 95 1012.1
20260831212407 67 111 1.0 3.0 0.00 0.04 0.04 95 1012.3
20260831211906 67 115 1.0 3.0 0.00 0.04 0.04 94 1012.2
20260831211407 67 114 1.0 2.0 0.00 0.04 0.04 94 1012.0
20260831210906 67 70 1.0 2.0 0.00 0.04 0.04 94 1012.2
20260831210406 68 74 1.0 2.0 0.00 0.04 0.04 93 1012.1
20260831205907 68 94 1.0 3.0 0.00 0.04 0.04 93 1012.1
20260831205406 68 129 1.0 3.0 0.00 0.04 0.04 94 1012.3
20260831204907 68 60 1.0 3.0 0.00 0.04 0.04 93 1012.3
20260831204407 68 64 1.0 3.0 0.00 0.04 0.04 93 1012.3
20260831203907 68 115 1.0 3.0 0.00 0.04 0.04 94 1012.3
20260831203406 68 87 1.0 3.0 0.00 0.04 0.04 93 1012.5
20260831202907 68 141 1.0 2.0 0.00 0.04 0.04 93 1012.5
20260831202406 68 109 1.0 3.0 0.00 0.04 0.04 93 1012.5
20260831201907 69 84 1.0 3.0 0.00 0.04 0.04 92 1012.6
20260831201406 69 143 1.0 5.0 0.00 0.04 0.04 90 1012.7
20260831200906 69 39 1.0 3.0 0.00 0.04 0.04 92 1012.6
20260831195906 69 52 1.0 3.0 0.00 0.04 0.04 93 1012.7
20260831195406 69 55 1.0 3.0 0.00 0.05 0.04 93 1012.8
20260831194906 69 62 1.0 3.0 0.00 0.05 0.04 92 1012.8
20260831194407 69 88 1.0 2.0 0.00 0.05 0.04 91 1012.9
20260831193907 70 79 1.0 3.0 0.00 0.05 0.04 90 1012.9
20260831193407 70 67 1.0 3.0 0.00 0.05 0.04 90 1013.0
20260831192906 71 37 2.0 3.0 0.00 0.05 0.04 90 1013.0
20260831191907 70 64 1.0 5.0 0.00 0.05 0.04 92 1013.1
20260831191407 70 129 1.0 5.0 0.00 0.05 0.04 90 1013.1
20260831190906 71 82 1.0 3.0 0.00 0.05 0.04 90 1013.2
20260831190406 71 58 2.0 3.0 0.00 0.05 0.04 89 1013.1
20260831185406 73 51 2.0 7.0 0.00 0.05 0.04 89 1013.0
20260831184407 72 87 2.0 5.0 0.00 0.05 0.04 90 1013.2
20260831183906 72 148 2.0 3.0 0.00 0.05 0.04 91 1013.1
20260831183407 72 63 2.0 5.0 0.00 0.05 0.04 92 1013.1
20260831182907 71 109 1.0 3.0 0.00 0.05 0.04 93 1013.2
20260831182406 71 112 1.0 7.0 0.00 0.05 0.04 92 1013.2
20260831181907 70 81 1.0 3.0 0.00 0.05 0.04 92 1013.2
20260831181406 70 105 1.0 3.0 0.00 0.05 0.04 93 1013.4
20260831180406 70 53 2.0 3.0 0.00 0.05 0.04 95 1013.4
20260831175906 69 38 2.0 5.0 0.00 0.05 0.04 94 1013.4
20260831175406 69 59 1.0 3.0 0.00 0.05 0.04 94 1013.4
20260831174906 69 60 1.0 3.0 0.00 0.05 0.04 94 1013.4
20260831174406 69 62 1.0 3.0 0.00 0.05 0.04 95 1013.6
20260831173912 69 72 2.0 3.0 0.00 0.05 0.04 95 1013.6
20260831173406 69 48 1.0 3.0 0.00 0.05 0.04 97 1013.8
20260831172907 69 98 2.0 5.0 0.00 0.05 0.04 97 1013.8
20260831172412 68 83 1.0 3.0 0.00 0.05 0.04 97 1013.8
20260831171906 68 58 1.0 3.0 0.00 0.05 0.04 97 1013.8
20260831171406 68 96 1.0 3.0 0.00 0.05 0.04 98 1013.9
20260831170912 68 67 1.0 5.0 0.00 0.05 0.04 97 1013.9
20260831170406 68 58 1.0 3.0 0.00 0.05 0.04 98 1014.0
20260831165906 68 41 1.0 3.0 0.00 0.05 0.04 98 1014.1
20260831165412 68 65 1.0 3.0 0.00 0.05 0.04 98 1014.2
20260831164906 67 67 1.0 3.0 0.00 0.05 0.04 98 1014.3
20260831164406 67 44 1.0 3.0 0.00 0.05 0.04 98 1014.1
20260831163406 68 50 1.0 3.0 0.00 0.05 0.04 98 1014.2
20260831162906 69 45 1.0 3.0 0.00 0.05 0.04 98 1014.3
20260831161906 70 66 1.0 2.0 0.00 0.05 0.04 98 1014.2
20260831161406 71 46 1.0 2.0 0.00 0.05 0.04 98 1014.3
20260831160909 70 78 1.0 3.0 0.00 0.05 0.04 98 1014.4
20260831160405 70 36 1.0 3.0 0.00 0.05 0.04 98 1014.4
20260831155906 70 122 1.0 2.0 0.00 0.05 0.04 98 1014.6
20260831155406 69 108 1.0 2.0 0.00 0.05 0.04 98 1014.7
20260831154906 69 156 1.0 2.0 0.00 0.05 0.04 98 1014.7
20260831154407 69 86 1.0 2.0 0.00 0.05 0.04 98 1014.6
20260831153906 69 54 1.0 2.0 0.00 0.05 0.04 98 1014.6
20260831153406 69 101 1.0 2.0 0.00 0.05 0.04 98 1014.8
20260831152906 69 131 0.0 2.0 0.00 0.05 0.04 98 1014.8
20260831151906 69 155 1.0 2.0 0.00 0.05 0.04 98 1014.6
20260831151406 69 160 1.0 2.0 0.00 0.05 0.04 98 1014.7
20260831150905 68 156 1.0 2.0 0.01 0.05 0.04 98 1014.8
20260831150406 68 153 1.0 2.0 0.01 0.05 0.04 98 1014.9
20260831145406 68 119 0.0 2.0 0.02 0.05 0.04 98 1015.0
20260831144905 68 127 1.0 2.0 0.02 0.05 0.04 98 1015.1
20260831144405 68 101 1.0 2.0 0.03 0.05 0.04 98 1015.2
20260831143906 67 140 0.0 2.0 0.03 0.05 0.04 98 1014.9
20260831143406 67 67 1.0 2.0 0.03 0.05 0.04 98 1014.9
20260831142406 67 107 0.0 2.0 0.04 0.05 0.04 98 1015.2
20260831141906 67 121 0.0 2.0 0.04 0.05 0.04 98 1015.2
20260831141406 67 149 1.0 2.0 0.04 0.05 0.04 98 1015.2
20260831140406 67 108 0.0 2.0 0.03 0.04 0.03 98 1015.1
20260831135906 67 65 0.0 1.0 0.03 0.04 0.03 98 1015.2
20260831135406 67 122 0.0 2.0 0.02 0.03 0.02 98 1015.2
20260831134906 67 107 0.0 2.0 0.02 0.03 0.02 98 1015.2
20260831134406 67 90 0.0 2.0 0.01 0.02 0.01 98 1015.3
20260831133405 66 166 0.0 1.0 0.01 0.02 0.01 98 1015.4
20260831132406 66 145 0.0 2.0 0.00 0.01 0.00 98 1015.5
20260831131906 66 149 0.0 2.0 0.00 0.01 0.00 98 1015.4
20260831131406 66 82 0.0 1.0 0.00 0.01 0.00 98 1015.2
20260831130906 66 179 1.0 2.0 0.00 0.01 0.00 98 1014.9
20260831125906 66 131 0.0 2.0 0.00 0.02 0.00 98 1015.0
20260831125405 66 142 0.0 2.0 0.00 0.02 0.00 98 1015.1
20260831124906 66 97 0.0 2.0 0.00 0.02 0.00 98 1015.2
20260831124406 66 106 0.0 2.0 0.00 0.02 0.00 98 1015.1
20260831123906 66 109 0.0 2.0 0.00 0.02 0.00 98 1014.9
20260831122906 66 167 0.0 2.0 0.00 0.02 0.00 98 1014.6
20260831122406 66 124 0.0 2.0 0.00 0.02 0.00 98 1014.7
20260831121905 66 83 0.0 1.0 0.00 0.03 0.00 98 1014.5
20260831120906 66 153 1.0 2.0 0.00 0.03 0.00 98 1014.4
20260831120406 66 121 1.0 2.0 0.00 0.03 0.00 98 1014.4
20260831115406 65 128 1.0 2.0 0.00 0.03 0.00 98 1014.3
20260831114406 65 129 1.0 3.0 0.00 0.03 0.00 98 1013.9
20260831113906 65 174 1.0 2.0 0.00 0.04 0.00 98 1013.6
20260831113405 65 90 1.0 2.0 0.00 0.04 0.00 98 1013.6
20260831112906 65 104 1.0 2.0 0.00 0.04 0.00 98 1013.6
20260831112406 65 122 1.0 3.0 0.00 0.04 0.00 98 1013.9
20260831111906 65 90 1.0 2.0 0.00 0.04 0.00 98 1014.0
20260831111406 65 130 1.0 2.0 0.00 0.04 0.00 98 1014.2
20260831110906 65 127 1.0 2.0 0.00 0.05 0.00 98 1014.4
20260831105906 65 117 0.0 2.0 0.00 0.05 0.00 98 1014.4
20260831105406 65 98 0.0 2.0 0.00 0.05 0.00 98 1014.4
20260831104906 65 116 0.0 1.0 0.00 0.05 0.00 98 1014.6
20260831104405 64 122 0.0 2.0 0.00 0.05 0.00 98 1014.8
20260831103905 64 113 0.0 1.0 0.00 0.05 0.00 98 1015.1
20260831103406 64 130 0.0 2.0 0.00 0.05 0.00 98 1015.2
20260831102906 64 145 0.0 1.0 0.00 0.05 0.00 98 1015.5
20260831102405 64 105 0.0 1.0 0.00 0.05 0.00 98 1015.5
20260831101905 64 150 0.0 1.0 0.00 0.05 0.00 98 1015.6
20260831101406 64 121 0.0 1.0 0.00 0.05 0.00 98 1015.7
20260831100912 64 135 0.0 2.0 0.00 0.05 0.00 98 1015.7
20260831100406 64 119 0.0 1.0 0.00 0.05 0.00 98 1015.7
20260831095906 64 89 0.0 2.0 0.00 0.05 0.00 98 1015.7
20260831094906 64 87 0.0 2.0 0.00 0.05 0.00 98 1015.6
20260831094406 64 85 0.0 2.0 0.00 0.05 0.00 98 1015.7
20260831093911 64 97 0.0 1.0 0.00 0.05 0.00 98 1015.8
20260831093406 64 113 0.0 2.0 0.00 0.05 0.00 98 1016.0
20260831092906 64 145 0.0 1.0 0.00 0.05 0.00 98 1015.7
20260831092412 64 62 0.0 1.0 0.00 0.05 0.00 98 1015.9
20260831091906 64 113 0.0 2.0 0.00 0.05 0.00 98 1015.9
20260831091406 64 113 0.0 3.0 0.00 0.05 0.00 98 1016.0
20260831090911 64 93 0.0 2.0 0.00 0.05 0.00 98 1016.1
20260831090406 64 88 0.0 1.0 0.00 0.05 0.00 98 1016.0
20260831085906 64 112 0.0 2.0 0.00 0.05 0.00 98 1016.1
20260831084906 64 91 0.0 1.0 0.00 0.05 0.00 98 1016.1
20260831083911 64 133 0.0 1.0 0.00 0.05 0.00 98 1016.2
20260831082905 64 107 0.0 1.0 0.00 0.05 0.00 98 1016.2
20260831082412 64 129 0.0 1.0 0.00 0.05 0.00 98 1016.1
20260831081906 64 111 0.0 1.0 0.00 0.05 0.00 98 1016.2
20260831081406 64 144 0.0 2.0 0.00 0.05 0.00 98 1016.1
20260831080912 64 139 0.0 3.0 0.00 0.05 0.00 98 1016.0
20260831080405 64 104 0.0 1.0 0.00 0.05 0.00 98 1015.8
20260831075906 64 114 0.0 1.0 0.00 0.05 0.00 98 1015.8
20260831075411 64 157 0.0 2.0 0.00 0.05 0.00 98 1015.9
20260831074906 64 110 0.0 2.0 0.00 0.05 0.00 98 1015.7
20260831073912 64 77 0.0 2.0 0.00 0.05 0.00 98 1015.5
20260831073405 64 95 0.0 2.0 0.00 0.05 0.00 98 1015.4
20260831072905 64 125 0.0 2.0 0.00 0.05 0.00 98 1015.4
20260831072411 64 126 1.0 2.0 0.00 0.05 0.00 98 1015.4
20260831071906 64 91 0.0 2.0 0.00 0.05 0.00 98 1015.4
20260831071405 64 119 1.0 2.0 0.00 0.06 0.00 98 1015.5
20260831070912 64 145 0.0 3.0 0.00 0.06 0.00 98 1015.6
20260831070405 64 95 0.0 1.0 0.00 0.06 0.00 98 1015.6
20260831065409 64 124 0.0 3.0 0.00 0.06 0.00 97 1015.8
20260831064906 64 123 1.0 3.0 0.00 0.06 0.00 97 1015.9
20260831064412 64 70 0.0 2.0 0.00 0.06 0.00 98 1015.8
20260831063911 64 148 0.0 2.0 0.00 0.06 0.00 97 1015.8
20260831063405 64 121 1.0 3.0 0.00 0.06 0.00 97 1016.0
20260831061906 65 95 0.0 2.0 0.00 0.07 0.00 98 1016.0
20260831061406 65 112 0.0 2.0 0.00 0.07 0.00 98 1016.1
20260831060906 65 101 0.0 3.0 0.00 0.09 0.00 98 1016.1
20260831060405 65 109 0.0 2.0 0.00 0.10 0.00 98 1016.2
20260831055905 65 105 0.0 2.0 0.00 0.10 0.00 97 1016.2
20260831054905 65 77 0.0 1.0 0.00 0.11 0.00 98 1016.2
20260831054405 65 119 0.0 1.0 0.00 0.12 0.00 98 1016.2
20260831053906 65 127 0.0 1.0 0.00 0.12 0.00 98 1016.2
20260831052905 65 133 0.0 2.0 0.00 0.14 0.00 98 1016.2
20260831052406 65 104 0.0 1.0 0.00 0.14 0.00 98 1016.3
20260831051906 65 131 0.0 2.0 0.00 0.14 0.00 98 1016.3
20260831051421 65 59 0.0 1.0 0.00 0.14 0.00 98 1016.2
20260831050906 65 101 0.0 2.0 0.00 0.14 0.00 98 1016.1
20260831045906 64 101 0.0 2.0 0.00 0.14 0.00 97 1016.2
20260831044406 64 130 0.0 3.0 0.00 0.14 0.00 97 1016.2
20260831043905 64 135 0.0 1.0 0.00 0.14 0.00 97 1016.3
20260831042906 64 85 0.0 2.0 0.00 0.14 0.00 97 1016.3
20260831042406 64 140 1.0 2.0 0.00 0.14 0.00 97 1016.3
20260831041921 64 80 0.0 1.0 0.00 0.14 0.00 97 1016.3
20260831041406 64 109 0.0 2.0 0.00 0.14 0.00 97 1016.4
20260831040421 64 69 0.0 2.0 0.00 0.15 0.00 97 1016.3
20260831035905 64 141 0.0 1.0 0.00 0.15 0.15 97 1016.3
20260831034905 64 106 0.0 1.0 0.00 0.15 0.15 97 1016.4
20260831034405 64 97 0.0 2.0 0.00 0.15 0.15 97 1016.4
20260831033906 64 109 0.0 1.0 0.00 0.15 0.15 97 1016.3
20260831032905 64 137 0.0 1.0 0.00 0.16 0.15 97 1016.6
20260831032406 64 111 0.0 1.0 0.00 0.16 0.15 97 1016.5
20260831031908 64 145 0.0 1.0 0.00 0.16 0.15 97 1016.6
20260831031406 64 146 0.0 1.0 0.00 0.16 0.15 97 1016.7
20260831030405 64 104 0.0 2.0 0.00 0.16 0.15 97 1016.6
20260831025905 64 120 1.0 2.0 0.00 0.16 0.15 97 1016.7
20260831025405 64 108 0.0 2.0 0.00 0.16 0.15 97 1016.7
20260831024906 64 80 0.0 2.0 0.00 0.16 0.15 97 1016.5
20260831024406 64 101 1.0 3.0 0.00 0.16 0.15 97 1016.4
20260831023905 64 115 0.0 2.0 0.00 0.16 0.15 97 1016.4
20260831023405 64 133 1.0 2.0 0.00 0.16 0.15 97 1016.4
20260831022905 64 123 0.0 2.0 0.00 0.16 0.15 97 1016.4
20260831021905 64 126 1.0 2.0 0.00 0.16 0.15 97 1016.5
20260831021421 64 56 0.0 2.0 0.00 0.16 0.15 97 1016.3
20260831020905 64 124 0.0 1.0 0.00 0.16 0.15 97 1016.5
20260831020406 64 69 0.0 2.0 0.00 0.16 0.15 97 1016.4
20260831014905 64 69 0.0 2.0 0.00 0.16 0.15 97 1016.5
20260831013406 64 135 0.0 2.0 0.00 0.16 0.15 97 1016.5
20260831012905 64 118 0.0 2.0 0.00 0.16 0.15 97 1016.6
20260831011905 64 86 0.0 2.0 0.00 0.16 0.15 97 1016.3
20260831011411 64 94 0.0 2.0 0.00 0.16 0.15 97 1016.1
20260831010906 64 105 0.0 2.0 0.00 0.16 0.15 97 1016.0
20260831010405 64 80 0.0 2.0 0.00 0.16 0.15 97 1015.9
20260831005911 64 83 0.0 2.0 0.00 0.16 0.15 97 1015.8
20260831005405 64 66 1.0 2.0 0.00 0.16 0.15 97 1015.8
20260831004906 64 137 0.0 2.0 0.00 0.16 0.15 97 1015.8
20260831004411 64 88 0.0 2.0 0.00 0.16 0.15 97 1015.7
20260831003906 64 97 0.0 2.0 0.00 0.16 0.15 97 1015.9
20260831002905 64 117 0.0 2.0 0.00 0.16 0.15 97 1015.9
20260831001412 64 132 0.0 2.0 0.00 0.16 0.15 96 1015.7
20260831000905 64 101 0.0 1.0 0.00 0.16 0.15 96 1015.7
20260830235909 64 97 0.0 2.0 0.00 0.16 0.15 96 1015.8
20260830235406 64 104 0.0 2.0 0.00 0.16 0.15 96 1015.7
20260830234905 64 67 0.0 3.0 0.00 0.16 0.15 96 1015.9
20260830234411 64 102 0.0 2.0 0.00 0.16 0.15 96 1015.9
20260830233921 64 134 1.0 2.0 0.00 0.16 0.15 96 1016.0
20260830232905 64 63 1.0 3.0 0.00 0.16 0.15 96 1016.1
20260830231405 65 84 1.0 2.0 0.00 0.16 0.15 96 1015.8
20260830230905 65 115 0.0 2.0 0.00 0.16 0.15 96 1015.9
20260830230405 65 122 1.0 3.0 0.00 0.16 0.15 96 1016.1
20260830225405 64 134 1.0 2.0 0.00 0.16 0.15 96 1016.2
20260830224904 65 97 1.0 2.0 0.00 0.16 0.15 95 1016.5
20260830224405 65 100 0.0 2.0 0.00 0.16 0.15 95 1016.5
20260830223905 65 105 0.0 2.0 0.00 0.16 0.15 95 1016.3
20260830223405 65 100 1.0 2.0 0.00 0.16 0.15 95 1016.2